• MPC Preparation (Info)

  • MPEC 2014-J32 : 2014 JN2

    The following Minor Planet Electronic Circular may be linked-to from your own Web pages, but must not otherwise be redistributed electronically.

    A form allowing access to any MPEC is at the bottom of this page.


    Read MPEC 2014-J31 Read MPEC 2014-J33


    M.P.E.C. 2014-J32                                Issued 2014 May 4, 00:46 UT
    
         The Minor Planet Electronic Circulars contain information on unusual
             minor planets and routine data on comets.  They are published
       on behalf of Commission 20 of the International Astronomical Union by the
              Minor Planet Center, Smithsonian Astrophysical Observatory,
                              Cambridge, MA 02138, U.S.A.
    
                 Prepared using the Tamkin Foundation Computer Network
    
                                  MPC@CFA.HARVARD.EDU
                URL https://www.minorplanetcenter.net/    ISSN 1523-6714
    
                                       2014 JN2
    
    Observations:
         K14J02N* C2014 05 02.28554 14 24 07.02 -12 39 56.1          20.0 VqEJ032G96
         K14J02N  C2014 05 02.29210 14 24 01.34 -12 39 11.4          20.0 VqEJ032G96
         K14J02N  C2014 05 02.29866 14 23 55.91 -12 38 26.7          19.9 VqEJ032G96
         K14J02N  C2014 05 02.30522 14 23 50.34 -12 37 42.0          19.9 VqEJ032G96
         K14J02N  C2014 05 02.33490 14 23 25.13 -12 34 18.5          19.5 VqEJ032G96
         K14J02N  C2014 05 02.34020 14 23 20.52 -12 33 41.5          19.5 VqEJ032G96
         K14J02N  C2014 05 02.35082 14 23 11.58 -12 32 28.7          20.1 VqEJ032G96
         K14J02N KC2014 05 03.00955 14 13 42.25 -11 12 22.7          20.2 RqEJ032J95
         K14J02N KC2014 05 03.02284 14 13 29.84 -11 10 37.6          20.3 RqEJ032J95
         K14J02N KC2014 05 03.05019 14 13 04.26 -11 07 02.3          19.9 RqEJ032J95
         K14J02N  C2014 05 03.30804 14 09 04.44 -10 32 13.5          18.8 VqEJ032G96
         K14J02N  C2014 05 03.30926 14 09 03.13 -10 32 02.8          19.6 VqEJ032G96
         K14J02N  C2014 05 03.31049 14 09 01.91 -10 31 53.0          19.9 VqEJ032G96
         K14J02N  C2014 05 03.31733 14 08 55.18 -10 30 56.6          20.1 VqEJ032G96
         K14J02N  C2014 05 03.32157 14 08 51.03 -10 30 21.6          19.8 VqEJ032G96
         K14J02N  C2014 05 03.32582 14 08 46.81 -10 29 46.2          20.0 VqEJ032G96
         K14J02N  C2014 05 03.33011 14 08 42.45 -10 29 09.7          20.4 VqEJ032G96
         K14J02N  C2014 05 03.35569114 08 17.08 -10 25 38.9          20.1 RtEJ032H01
         K14J02N  C2014 05 03.36206114 08 10.80 -10 24 45.5          20.1 RtEJ032H01
         K14J02N  C2014 05 03.36980114 08 03.17 -10 23 40.8          19.9 RtEJ032H01
         K14J02N  C2014 05 03.38275214 07 50.37 -10 21 52.0          19.8 RtEJ032H01
         K14J02N KC2014 05 03.92583 13 58 49.76 -09 02 28.5          20.3 VqEJ032958
         K14J02N KC2014 05 03.93052 13 58 44.74 -09 01 44.4          19.9 VqEJ032958
         K14J02N KC2014 05 03.93520 13 58 39.68 -09 01 01.0          20.2 VqEJ032958
         K14J02N KC2014 05 03.93990 13 58 34.67 -09 00 17.4          20.4 VqEJ032958
         K14J02N KC2014 05 03.94928 13 58 24.54 -08 58 51.7          20.0 VqEJ032958
    
    Observer details:
    958 Observatoire de Dax.  Observers P. Dupouy, J. B. de Vanssay.  Measurer
        P. Dupouy.  0.43-m f/2.7 reflector + CCD.
    G96 Mt. Lemmon Survey.  Observer A. D. Grauer.  Measurers E. J. Christensen,
        A. R. Gibbs, A. D. Grauer, R. E. Hill, J. A. Johnson, R. A. Kowalski,
        S. M. Larson, R. J. Sanders, F. C. Shelly.  1.5-m reflector + CCD.
    H01 Magdalena Ridge Observatory, Socorro.  Observers W. H. Ryan, E. V. Ryan.
        Measurer W. H. Ryan.  2.4-m f/8.9 reflector + CCD.
    J95 Great Shefford.  Observer P. Birtwhistle.  0.40-m f/6.0 Schmidt-Cassegrain
        + CCD.
    
    Orbital elements:
    2014 JN2                                                 Earth MOID = 0.0147 AU
    Epoch 2014 May 23.0 TT = JDT 2456800.5                  MPC
    M 309.28342              (2000.0)            P               Q
    n   1.17074430     Peri.  148.68580     +0.98703902     -0.14481155
    a   0.8915821      Node   219.82590     +0.11561377     +0.94055498
    e   0.6859145      Incl.    6.19950     +0.11129879     +0.30722295
    P   0.84           H   24.3           G   0.15           U   9
    Residuals in seconds of arc
    140502 G96  0.9+  0.3-    140503 J95  0.1+  0.9+    140503 H01  0.3+  0.1+
    140502 G96  1.0-  0.2-    140503 G96  2.2+  0.4-    140503 H01  0.4+  0.1-
    140502 G96  0.8+  0.1-    140503 G96  0.5+  0.2+    140503 H01  0.2+  0.0
    140502 G96  0.6+  0.2-    140503 G96  0.4+  0.1-    140503 958  0.1-  0.6-
    140502 G96  0.5+  0.1-    140503 G96  0.5+  0.2-    140503 958  0.1+  0.1+
    140502 G96  1.0-  0.4+    140503 G96  0.8+  0.3-    140503 958  0.3-  0.3+
    140502 G96  0.5+  0.1-    140503 G96  0.4+  0.2-    140503 958  0.4+  0.4+
    140503 J95  0.0   1.1-    140503 G96  1.5-  0.8+    140503 958  0.0   0.9-
    140503 J95  0.0   0.2+    140503 H01  0.2+  0.1-
    
    Ephemeris:
    2014 JN2                 a,e,i = 0.89, 0.69, 6                   q = 0.2800
    Date    TT    R. A. (2000) Decl.     Delta      r     Elong.  Phase     V
    2014 04 04    16 03 06.3 -24 27 54   0.4408  1.3284   130.3    35.0    24.6
    ...
    2014 04 19    15 47 07.0 -22 41 26   0.2528  1.2278   149.0    24.9    22.9
    ...
    2014 04 27    15 14 20.4 -19 05 42   0.1614  1.1632   165.1    12.8    21.4
    ...
    2014 05 03    14 13 52.2 -11 12 26   0.1021  1.1093   172.4     6.9    20.1
    2014 05 04    13 57 31.4 -08 49 51   0.09390 1.0999   166.8    12.1    20.1
    2014 05 05    13 38 30.1 -05 58 19   0.08644 1.0903   160.4    18.1    20.1
    ...
    2014 05 11    10 42 55.8 +19 24 02   0.06995 1.0297   104.6    71.7    21.1
    ...
    2014 05 19    07 29 56.2 +31 48 22   0.1246  0.9404    52.2   121.8    24.6
    ...
    2014 06 03    05 49 20.9 +30 33 21   0.2885  0.7433    17.1   156.4    30.8
    
    A. U. Tomatic                (C) Copyright 2014 MPC           M.P.E.C. 2014-J32
    

    Read MPEC 2014-J31 Read MPEC 2014-J33


    MPEC number:

    Enter an MPEC number in one of the following forms:

    • 1997-B01 (the full form)
    • J97B01 (the packed version of the full form)
    • B01 (the abbreviated form)